SWA1519 KSAN-KOAK

Flight info

Callsign SWA1519
Flight time N/A
Altitude 36000
Route PADRZ2 OROSZ DCT COREZ DCT RGOOD EMZOH4
Aircraft B737/M-SDE2E3FGHIRWXY/LB1

Departure

Time 2026-04-30 22:17
Airport San Diego International Airport (KSAN)

Arrival

Time N/A
Airport San Francisco Bay Oakland International Airport (KOAK)
Time Latitude Longitude Altitude Speed Heading
2026-04-30 21:28 32.73312 -117.19573 21 ft 0 kts 227°
2026-04-30 22:03 32.73320 -117.19563 22 ft 4 kts 227°
2026-04-30 22:04 32.73338 -117.19539 22 ft 4 kts 227°
2026-04-30 22:04 32.73353 -117.19520 24 ft 4 kts 217°
2026-04-30 22:04 32.73388 -117.19526 22 ft 4 kts 106°
2026-04-30 22:05 32.73391 -117.19540 24 ft 0 kts 106°
2026-04-30 22:12 32.73389 -117.19530 24 ft 4 kts 106°
2026-04-30 22:12 32.73380 -117.19493 23 ft 5 kts 106°
2026-04-30 22:12 32.73371 -117.19456 22 ft 5 kts 106°
2026-04-30 22:13 32.73360 -117.19411 23 ft 7 kts 106°
2026-04-30 22:13 32.73344 -117.19344 23 ft 10 kts 106°
2026-04-30 22:13 32.73323 -117.19261 22 ft 10 kts 106°
2026-04-30 22:13 32.73304 -117.19180 21 ft 10 kts 105°
2026-04-30 22:14 32.73282 -117.19086 22 ft 15 kts 105°
2026-04-30 22:14 32.73250 -117.18952 22 ft 18 kts 105°
2026-04-30 22:14 32.73209 -117.18795 23 ft 21 kts 109°
2026-04-30 22:14 32.73168 -117.18616 28 ft 24 kts 105°
2026-04-30 22:15 32.73121 -117.18418 27 ft 26 kts 106°
2026-04-30 22:15 32.73069 -117.18201 28 ft 28 kts 106°
2026-04-30 22:15 32.73010 -117.17972 28 ft 30 kts 107°
2026-04-30 22:15 32.72958 -117.17762 26 ft 22 kts 106°
2026-04-30 22:16 32.72966 -117.17630 26 ft 16 kts 70°
2026-04-30 22:16 32.73015 -117.17552 27 ft 7 kts 327°
2026-04-30 22:17 32.73351 -117.18953 23 ft 153 kts 285°
2026-04-30 22:17 32.73681 -117.20352 217 ft 190 kts 283°
2026-04-30 22:17 32.74811 -117.23350 1567 ft 225 kts 306°
2026-04-30 22:18 32.75853 -117.24944 1926 ft 261 kts 307°
2026-04-30 22:18 32.77980 -117.28367 4539 ft 245 kts 306°
2026-04-30 22:19 32.79954 -117.31883 6019 ft 279 kts 305°
2026-04-30 22:19 32.80724 -117.33233 6448 ft 290 kts 308°
2026-04-30 22:19 32.83153 -117.36959 8768 ft 278 kts 311°